Donnes mto: Actuelle mercredi, 18/10/2017 03:50
Date Horaire Temp. E. Hum. E. P.atmo. Pluie Vent Direction Direction Ensoleilleme Ev.Tr. Solaire P. de rose Temp au vent Rafales
18/10/2017 03:50 15,9 C 84 % 1013,9 hPa 0,0 mm 0,0 km/h (0 Bft) E 86 0 min 0,000 mm 0 W/m 13,2 C 15,9 C 0,0 km/h (0 Bft)
18/10/2017 03:45 15,8 C 84 % 1014,0 hPa 0,0 mm 0,2 km/h (0 Bft) E 86 0 min 0,000 mm 0 W/m 13,1 C 15,8 C 6,4 km/h (2 Bft)
18/10/2017 03:40 15,8 C 84 % 1014,1 hPa 0,0 mm 0,1 km/h (0 Bft) E-NE 77 0 min 0,000 mm 0 W/m 13,1 C 15,8 C 1,6 km/h (1 Bft)
18/10/2017 03:35 15,8 C 84 % 1014,1 hPa 0,0 mm 0,4 km/h (0 Bft) E-NE 77 0 min 0,000 mm 0 W/m 13,1 C 15,8 C 8,0 km/h (2 Bft)
18/10/2017 03:30 15,8 C 83 % 1014,2 hPa 0,0 mm 0,1 km/h (0 Bft) E 89 0 min 0,000 mm 0 W/m 12,9 C 15,8 C 3,2 km/h (1 Bft)
18/10/2017 03:25 15,7 C 83 % 1014,3 hPa 0,0 mm 0,0 km/h (0 Bft) E 86 0 min 0,000 mm 0 W/m 12,8 C 15,7 C 0,0 km/h (0 Bft)
18/10/2017 03:20 15,7 C 83 % 1014,4 hPa 0,0 mm 0,1 km/h (0 Bft) E 86 0 min 0,000 mm 0 W/m 12,8 C 15,7 C 3,2 km/h (1 Bft)
18/10/2017 03:15 15,7 C 83 % 1014,5 hPa 0,0 mm 0,0 km/h (0 Bft) E 90 0 min 0,000 mm 0 W/m 12,8 C 15,7 C 0,0 km/h (0 Bft)
18/10/2017 03:10 15,8 C 83 % 1014,4 hPa 0,0 mm 0,1 km/h (0 Bft) E 89 0 min 0,000 mm 0 W/m 12,9 C 15,8 C 3,2 km/h (1 Bft)
18/10/2017 03:05 15,8 C 83 % 1014,5 hPa 0,0 mm 0,0 km/h (0 Bft) E 90 0 min 0,000 mm 0 W/m 12,9 C 15,8 C 1,6 km/h (1 Bft)
18/10/2017 03:00 15,7 C 83 % 1014,6 hPa 0,0 mm 0,0 km/h (0 Bft) E-NE 77 0 min 0,025 mm 0 W/m 12,8 C 15,7 C 0,0 km/h (0 Bft)
18/10/2017 02:55 15,7 C 83 % 1014,7 hPa 0,0 mm 0,2 km/h (0 Bft) E-NE 77 0 min 0,000 mm 0 W/m 12,8 C 15,7 C 6,4 km/h (2 Bft)
18/10/2017 02:50 15,6 C 83 % 1014,7 hPa 0,0 mm 0,0 km/h (0 Bft) E-SE 108 0 min 0,000 mm 0 W/m 12,7 C 15,6 C 0,0 km/h (0 Bft)
18/10/2017 02:45 15,6 C 83 % 1014,6 hPa 0,0 mm 0,0 km/h (0 Bft) E-SE 108 0 min 0,000 mm 0 W/m 12,7 C 15,6 C 0,0 km/h (0 Bft)
18/10/2017 02:40 15,6 C 83 % 1014,8 hPa 0,0 mm 0,0 km/h (0 Bft) E-SE 108 0 min 0,000 mm 0 W/m 12,7 C 15,6 C 0,0 km/h (0 Bft)
18/10/2017 02:35 15,7 C 82 % 1014,8 hPa 0,0 mm 0,0 km/h (0 Bft) E-SE 108 0 min 0,000 mm 0 W/m 12,6 C 15,7 C 0,0 km/h (0 Bft)
18/10/2017 02:30 15,7 C 82 % 1014,9 hPa 0,0 mm 0,0 km/h (0 Bft) E-SE 108 0 min 0,000 mm 0 W/m 12,6 C 15,7 C 0,0 km/h (0 Bft)
18/10/2017 02:25 15,8 C 82 % 1014,9 hPa 0,0 mm 0,2 km/h (0 Bft) E-SE 108 0 min 0,000 mm 0 W/m 12,7 C 15,8 C 3,2 km/h (1 Bft)
18/10/2017 02:20 15,8 C 81 % 1015,0 hPa 0,0 mm 0,0 km/h (0 Bft) S-SE 150 0 min 0,000 mm 0 W/m 12,5 C 15,8 C 0,0 km/h (0 Bft)
18/10/2017 02:15 15,8 C 81 % 1015,1 hPa 0,0 mm 0,0 km/h (0 Bft) S-SE 150 0 min 0,000 mm 0 W/m 12,5 C 15,8 C 0,0 km/h (0 Bft)
18/10/2017 02:10 15,9 C 81 % 1015,1 hPa 0,0 mm 0,0 km/h (0 Bft) S-SE 150 0 min 0,000 mm 0 W/m 12,6 C 15,9 C 1,6 km/h (1 Bft)
18/10/2017 02:05 16,0 C 81 % 1014,9 hPa 0,0 mm 0,0 km/h (0 Bft) S-SE 150 0 min 0,000 mm 0 W/m 12,7 C 16,0 C 0,0 km/h (0 Bft)
18/10/2017 02:00 16,1 C 80 % 1014,9 hPa 0,0 mm 0,0 km/h (0 Bft) S-SE 150 0 min 0,026 mm 0 W/m 12,6 C 16,1 C 0,0 km/h (0 Bft)
18/10/2017 01:55 16,2 C 80 % 1014,9 hPa 0,0 mm 0,4 km/h (0 Bft) S-SE 150 0 min 0,000 mm 0 W/m 12,7 C 16,2 C 6,4 km/h (2 Bft)
18/10/2017 01:50 16,3 C 80 % 1014,8 hPa 0,0 mm 0,2 km/h (0 Bft) E 97 0 min 0,000 mm 0 W/m 12,8 C 16,3 C 8,0 km/h (2 Bft)
18/10/2017 01:45 16,3 C 79 % 1014,8 hPa 0,0 mm 0,2 km/h (0 Bft) E 100 0 min 0,000 mm 0 W/m 12,6 C 16,3 C 4,8 km/h (1 Bft)
18/10/2017 01:40 16,4 C 79 % 1014,8 hPa 0,0 mm 0,1 km/h (0 Bft) E 100 0 min 0,000 mm 0 W/m 12,7 C 16,4 C 3,2 km/h (1 Bft)
18/10/2017 01:35 16,5 C 79 % 1014,9 hPa 0,0 mm 0,0 km/h (0 Bft) E 99 0 min 0,000 mm 0 W/m 12,8 C 16,5 C 0,0 km/h (0 Bft)
18/10/2017 01:30 16,6 C 78 % 1014,9 hPa 0,0 mm 0,1 km/h (0 Bft) E 99 0 min 0,000 mm 0 W/m 12,7 C 16,6 C 1,6 km/h (1 Bft)
18/10/2017 01:25 16,6 C 78 % 1014,9 hPa 0,0 mm 0,0 km/h (0 Bft) E 99 0 min 0,000 mm 0 W/m 12,7 C 16,6 C 1,6 km/h (1 Bft)
18/10/2017 01:20 16,7 C 78 % 1014,9 hPa 0,0 mm 0,2 km/h (0 Bft) E 99 0 min 0,000 mm 0 W/m 12,8 C 16,7 C 4,8 km/h (1 Bft)
18/10/2017 01:15 16,7 C 78 % 1014,9 hPa 0,0 mm 0,5 km/h (0 Bft) E 99 0 min 0,000 mm 0 W/m 12,8 C 16,7 C 6,4 km/h (2 Bft)
18/10/2017 01:10 16,8 C 78 % 1015,0 hPa 0,0 mm 0,2 km/h (0 Bft) E 100 0 min 0,000 mm 0 W/m 12,9 C 16,8 C 8,0 km/h (2 Bft)
18/10/2017 01:05 16,7 C 78 % 1015,0 hPa 0,0 mm 0,6 km/h (0 Bft) E 85 0 min 0,000 mm 0 W/m 12,8 C 16,7 C 8,0 km/h (2 Bft)
18/10/2017 01:00 16,7 C 78 % 1015,2 hPa 0,0 mm 0,6 km/h (0 Bft) E-NE 67 0 min 0,025 mm 0 W/m 12,8 C 16,7 C 11,3 km/h (2 Bft)
18/10/2017 00:55 16,7 C 78 % 1015,2 hPa 0,0 mm 0,4 km/h (0 Bft) E 100 0 min 0,000 mm 0 W/m 12,8 C 16,7 C 9,7 km/h (2 Bft)
18/10/2017 00:50 16,7 C 78 % 1015,2 hPa 0,0 mm 0,2 km/h (0 Bft) E-SE 113 0 min 0,000 mm 0 W/m 12,8 C 16,7 C 3,2 km/h (1 Bft)
18/10/2017 00:45 16,7 C 78 % 1015,2 hPa 0,0 mm 0,3 km/h (0 Bft) E 85 0 min 0,000 mm 0 W/m 12,8 C 16,7 C 3,2 km/h (1 Bft)
18/10/2017 00:40 16,7 C 78 % 1015,4 hPa 0,0 mm 0,5 km/h (0 Bft) E 79 0 min 0,000 mm 0 W/m 12,8 C 16,7 C 8,0 km/h (2 Bft)
18/10/2017 00:35 16,8 C 77 % 1015,4 hPa 0,0 mm 0,9 km/h (0 Bft) E 98 0 min 0,000 mm 0 W/m 12,7 C 16,8 C 9,7 km/h (2 Bft)
18/10/2017 00:30 16,9 C 77 % 1015,5 hPa 0,0 mm 0,1 km/h (0 Bft) E 80 0 min 0,000 mm 0 W/m 12,8 C 16,9 C 3,2 km/h (1 Bft)
18/10/2017 00:25 17,0 C 77 % 1015,5 hPa 0,0 mm 0,0 km/h (0 Bft) E 80 0 min 0,000 mm 0 W/m 12,9 C 17,0 C 1,6 km/h (1 Bft)
18/10/2017 00:20 17,2 C 76 % 1015,5 hPa 0,0 mm 0,1 km/h (0 Bft) E-NE 74 0 min 0,000 mm 0 W/m 12,9 C 17,2 C 1,6 km/h (1 Bft)
18/10/2017 00:15 17,3 C 76 % 1015,6 hPa 0,0 mm 0,1 km/h (0 Bft) E-SE 121 0 min 0,000 mm 0 W/m 13,0 C 17,3 C 3,2 km/h (1 Bft)
18/10/2017 00:10 17,4 C 76 % 1015,6 hPa 0,0 mm 0,1 km/h (0 Bft) E-NE 71 0 min 0,000 mm 0 W/m 13,1 C 17,4 C 3,2 km/h (1 Bft)
18/10/2017 00:05 17,4 C 76 % 1015,5 hPa 0,0 mm 0,0 km/h (0 Bft) E-NE 61 0 min 0,000 mm 0 W/m 13,1 C 17,4 C 0,0 km/h (0 Bft)
18/10/2017 00:00 17,5 C 75 % 1015,5 hPa 0,0 mm 1,2 km/h (1 Bft) E-NE 73 0 min 0,000 mm 0 W/m 13,0 C 17,5 C 8,0 km/h (2 Bft)
_ Min-Heure 02:40 00:00 03:50 - 00:05 - - - - - 02:15 02:40 00:05
Minimum _ 15,6 C 75 % 1013,9 hPa - 0,0 km/h (0 Bft) - - - - - 12,5 C 15,6 C 0,0 km/h (0 Bft)
_ Max-Heure 00:00 03:35 00:10 00:00 00:00 - - 00:00 02:00 00:00 03:50 00:00 01:00
Maximum _ 17,6 C 84 % 1015,6 hPa 0,0 mm 1,2 km/h
E-NE (1 Bft)
- - 0 min 0,026 mm 0 W/m 13,2 C 17,5 C 11,3 km/h
E-NE (2 Bft)
Moyenne _ 16,3 C 80 % 1014,9 hPa #0,0 mm 0,2 km/h (0 Bft) E-NE - #0 min. #0,076 mm 0 W/m 12,8 C 16,3 C 3,3 km/h (1 Bft)